Regional Weather Roundup
Issued by NWS

Home | Current Version | Previous Version | Graphics & Text | Print | Product List | Glossary On
Versions: 1 2 3 4 5 6 7 8 9 10 11 12 13 14 15 16 17 18 19 20 21 22 23 24 25 26 27 28 29 30 31 32 33 34 35 36 37 38 39 40 41 42 43 44 45 46 47 48 49 50
000
ASUS44 KMEG 060400
RWRTN
TENNESSEE HOURLY STATE WEATHER ROUNDUP
NATIONAL WEATHER SERVICE MEMPHIS TN
1100 PM CDT SUN JUL 05 2015

TNZ002-004-019-021-049-052-054-088>092-060500-
WEST TENNESSEE

CITY           SKY/WX    TMP DP  RH WIND       PRES   REMARKS
MEMPHIS INTL   PTCLDY    74  70  87 S9G22     30.07S
NWS MEMPHIS      N/A     74 N/A N/A MISG        N/A
JACKSON        CLEAR     72  69  90 CALM      30.08S
DYERSBURG        N/A    N/A N/A N/A MISG        N/A
PARIS          CLEAR     72  70  94 CALM      30.08F
LEXINGTON      CLEAR     72  70  94 CALM      30.08F
$$

TNZ008-025-027-028-033-062-065-066-060500-
NORTH MIDDLE TENNESSEE

CITY           SKY/WX    TMP DP  RH WIND       PRES   REMARKS
NASHVILLE      PTCLDY    73  72  96 CALM      30.10S
CLARKSVILLE    MOCLDY    72  69  90 S5        30.08S FOG
COOKEVILLE       N/A     70  70 100 CALM      30.12S VSB 1
CROSSVILLE     MOCLDY    69  65  86 SW3       30.16F FOG
$$

TNZ061-075-076-078-094-096-097-060500-
SOUTH MIDDLE TENNESSEE

CITY           SKY/WX    TMP DP  RH WIND       PRES   REMARKS
FAYETTEVILLE   CLEAR     70  68  94 CALM      30.12S
TULLAHOMA      CLEAR     70  66  88 CALM      30.13F
WINCHESTER     CLEAR     72  70  94 CALM      30.12F
SHELBYVILLE    CLEAR     72  72 100 CALM        N/A
$$

TNZ017-018-042-046-047-060500-
NORTHEAST TENNESSEE

CITY           SKY/WX    TMP DP  RH WIND       PRES   REMARKS
TRI CITIES     CLOUDY    69  66  90 SW9       30.11F
ELIZABETHTON   CLOUDY    66  64  94 NW5       30.12F
$$

TNZ012-013-036-069-073-074-060500-
CENTRAL EAST TENNESSEE

CITY           SKY/WX    TMP DP  RH WIND       PRES   REMARKS
KNOXVILLE      CLOUDY    70  66  87 SW7       30.11F
OAK RIDGE      CLOUDY    71  68  90 SW5       30.13F
GATLINBURG     CLOUDY    70  63  78 SW5       30.11F
$$

TNZ083-085-099-060500-
SOUTHEAST TENNESSEE

CITY           SKY/WX    TMP DP  RH WIND       PRES   REMARKS
CHATTANOOGA    MOCLDY    74  68  81 CALM      30.11F
$$

SKY/WX REPORTED AS FAIR MEANS FEW OR NO CLOUDS BELOW
12 THOUSAND FEET.



USA.gov is the U.S. government's official web portal to all federal, state and local government web resources and services.